Rock Springs, WY

3:20 PM MST on November 18, 2017 (GMT -0700)
Rock Springs-Sweetwater

Weather History for KRKS - November, 2013

Change the Weather History Date:

Monday, November 4, 2013

  Actual Average Record
Temperature  
Mean Temperature 26 °F 37 °F  
Max Temperature 33 °F 47 °F 66 °F (1977)
Min Temperature 18 °F 26 °F 2 °F (1973)
Degree Days  
Heating Degree Days 39 28  
Month to date heating degree days 122 110  
Since 1 July heating degree days 1063 1077  
Cooling Degree Days 0 0  
Month to date cooling degree days 0 0  
Year to date cooling degree days 517 286  
Moisture  
Dew Point 13 °F    
Average Humidity 58    
Maximum Humidity 77    
Minimum Humidity 39    
Precipitation  
Precipitation 0.00 in 0.02 in 0.13 in (1960)
Month to date precipitation T 0.08  
Year to date precipitation 4.43 7.65  
Sea Level Pressure  
Sea Level Pressure 30.07 in    
Wind  
Wind Speed 10 mph (WSW)    
Max Wind Speed 22 mph    
Max Gust Speed 29 mph    
Visibility 10 miles    
Events      
T = Trace of Precipitation, MM = Missing Value Source: NWS Daily Summary

Daily Weather History Graph

Daily Weather History Graph

Search for Another Location

Airport or City:

Trip Planner

Search our weather history database for the weather conditions in past years. The results will help you decide how hot, cold, wet, or windy it might be!

Date:

Astronomy

Nov. 04, 2013 Rise Set
Actual Time 6:52 AM MST 5:06 PM MST
Civil Twilight 6:23 AM MST 5:36 PM MST
Nautical Twilight 5:50 AM MST 6:08 PM MST
Astronomical Twilight 5:17 AM MST 6:41 PM MST
Moon 8:07 AM MST (11/4) 6:13 PM MST (11/4)
Length of Visible Light 11h 12m
Length of Day
10h 14m
New Moon, 2% of the Moon is Illuminated
Nov 4
New Moon
Nov 9
First Quarter
Nov 17
Full
Nov 25
Last Quarter
Dec 2
New

Hourly Weather History & Observations

Time (MST) Temp. Windchill Dew Point Humidity Pressure Visibility Wind Dir Wind Speed Gust Speed Precip Events Conditions
12:54 AM 19.9 °F 6.7 °F 14.0 °F 78% 30.06 in 10.0 mi WSW 13.8 mph - N/A   Clear
1:54 AM 19.0 °F 7.5 °F 14.0 °F 81% 30.06 in 10.0 mi SW 10.4 mph - N/A   Clear
2:54 AM 19.9 °F 7.9 °F 14.0 °F 78% 30.06 in 10.0 mi SW 11.5 mph - N/A   Clear
3:54 AM 19.0 °F 9.0 °F 14.0 °F 81% 30.06 in 10.0 mi SSW 8.1 mph - N/A   Clear
4:54 AM 19.9 °F 10.1 °F 12.9 °F 74% 30.06 in 10.0 mi SW 8.1 mph - N/A   Clear
5:54 AM 19.0 °F 10.0 °F 12.9 °F 77% 30.08 in 10.0 mi SSW 6.9 mph - N/A   Clear
6:54 AM 19.9 °F 12.1 °F 12.9 °F 74% 30.07 in 10.0 mi WSW 5.8 mph - N/A   Clear
7:54 AM 21.9 °F - 14.0 °F 72% 30.10 in 10.0 mi Calm Calm - N/A   Clear
8:54 AM 23.0 °F - 15.1 °F 72% 30.10 in 10.0 mi Calm Calm - N/A   Overcast
9:54 AM 25.0 °F 18.1 °F 12.9 °F 60% 30.09 in 10.0 mi West 5.8 mph - N/A   Overcast
10:54 AM 28.0 °F 18.6 °F 12.9 °F 53% 30.08 in 10.0 mi West 10.4 mph - N/A   Overcast
11:54 AM 30.9 °F 20.7 °F 12.9 °F 47% 30.05 in 10.0 mi West 13.8 mph 19.6 mph N/A   Overcast
12:54 PM 32.0 °F 23.0 °F 12.0 °F 44% 30.02 in 10.0 mi West 11.5 mph 19.6 mph N/A   Overcast
1:54 PM 32.0 °F 22.1 °F 10.9 °F 42% 30.01 in 10.0 mi West 13.8 mph 27.6 mph N/A   Overcast
2:54 PM 30.0 °F 20.5 °F 10.0 °F 43% 30.02 in 10.0 mi West 11.5 mph - N/A   Overcast
3:54 PM 30.0 °F 19.1 °F 12.9 °F 49% 30.03 in 10.0 mi West 15.0 mph - N/A   Mostly Cloudy
4:54 PM 27.0 °F 15.6 °F 16.0 °F 63% 30.05 in 10.0 mi WSW 13.8 mph - N/A   Mostly Cloudy
5:54 PM 26.1 °F 18.4 °F 17.1 °F 69% 30.07 in 10.0 mi WSW 6.9 mph - N/A   Scattered Clouds
6:54 PM 25.0 °F 15.5 °F 17.1 °F 72% 30.09 in 10.0 mi WSW 9.2 mph - N/A   Partly Cloudy
7:54 PM 25.0 °F 14.2 °F 14.0 °F 63% 30.09 in 10.0 mi West 11.5 mph - N/A   Overcast
8:54 PM 21.9 °F 11.0 °F 12.0 °F 66% 30.11 in 10.0 mi WSW 10.4 mph - N/A   Clear
9:54 PM 21.0 °F 8.6 °F 12.0 °F 68% 30.13 in 10.0 mi West 12.7 mph - N/A   Clear
10:54 PM 19.9 °F 9.3 °F 12.0 °F 71% 30.13 in 10.0 mi West 9.2 mph - N/A   Clear
11:54 PM 18.0 °F 6.9 °F 10.9 °F 74% 30.14 in 10.0 mi West 9.2 mph - N/A   Clear